Location: Enborne
(51.3833°N, 1.3667°W)
Time: 14:31:48
(UTC+00:00)

Cosmos 1844 Rocket - Pass Details

Date: 20 January 2021
Orbit: 826 x 843 km, 71.0° (Epoch: 05 March)

Event Time Altitude Azimuth Distance (km) Brightness Sun altitude
Rises 18:08:23 0° 181° (S) 3,388 6.0 -14.2°
Reaches altitude 10° 18:10:58 10° 173° (S) 2,457 5.2 -14.6°
Maximum altitude 18:16:06 37° 108° (ESE) 1,288 3.2 -15.4°
Enters shadow 18:18:58 22° 57° (ENE) 1,747 3.8 -15.8°
